Aberdeen, SD (57401)

7:36 PM CST on February 05, 2016 (GMT -0600)
St. Mary's Church | | Change Station
CLOSE
Current Station
Personal Weather Station
Location: Aberdeen, SD
Elevation: 1302 ft
Nearby Weather Stations
Active Advisory: High Wind Watch

Elev 1302 ft 45.47 °N, 98.48 °W | Updated 2 seconds ago

Clear
Clear
28.9 °F
Feels Like 29 °F
N
0.0
Wind Variable Wind from NNW
Gusts 0.0 mph

Today
High -- | Low -- °F
--% Chance of Precip.
Yesterday
High -- | Low -- °F
Precip. -- in
Pressure 30.22 in
Visibility 10.0 miles
Clouds Clear
Windchill 29 °F
Dew Point 23 °F
Humidity 77%
Rainfall 0.02 in
Snow Depth Not available.
7:50 AM 5:46 PM
Waning Crescent, 8% visible
METAR KABR 060053Z AUTO 00000KT 10SM CLR M01/M06 A3016 RMK AO2 SLP233 T10111056
Pressure 30.22 in
Visibility 10.0 miles
Clouds Clear
Windchill 29 °F
Dew Point 23 °F
Humidity 77%
Rainfall 0.02 in
Snow Depth Not available.
7:50 AM 5:46 PM
Waning Crescent, 8% visible
METAR KABR 060053Z AUTO 00000KT 10SM CLR M01/M06 A3016 RMK AO2 SLP233 T10111056

10-Day Weather Forecast

Almanac

Astronomy

Feb. 05, 2016 Rise Set
Actual Time
Civil Twilight
Nautical Twilight
Astronomical Twilight
Moon
Length of Visible Light
Length of Day
Tomorrow will be .
, % of the Moon is Illuminated

Today's Extremes

State Highs State Lows

Community

WunderPhotos

Upload Photos

1,890,906 photos uploaded!

WunderBlog® & News

Nearby

Air Quality

  Air Quality AQ Index Pollutant
Not available.

Snow Depth

Station Depth Elevation

Earthquake Activity

City Distance Mag. Time & Date
Minimum magnitude displayed is 2.5.

Coastal Water Temperatures

Place Temperature

Stations

Nearby Weather Stations

Station Location Temp. Windchill Dew Point Humidity Wind Precip. Elev Updated Type
                   

Watches & Warnings

High Wind Watch
Issued: 3:01 PM CST Feb. 5, 2016 – National Weather Service

... High wind watch in effect from Sunday morning through Sunday
evening...

The National Weather Service in Aberdeen has issued a high wind
watch... which is in effect from Sunday morning through Sunday
evening.

* Winds... northwest 30 to 45 mph with gusts up to 60 mph
possible.

* Impacts... high profile vehicles will likely be affected.
Strong winds can create flying debris. Gusts over 60 mph can
cause property damage.

Precautionary/preparedness actions...

A high wind watch means there is the potential for a hazardous
high wind event. Sustained winds of at least 40 mph... or gusts of
58 mph or stronger may occur. Continue to monitor the latest
forecasts.